Temperature
20 20 19 19 19 19 18 18 18 17 17 17 17 17 17 16 16 16 16 16 16 16 16 16 16 15 15 15 15 15 15 15 15 15 15 15 15 15 15 15 14 14 14
20 20 19 19 19 19 18 18 18 17 17 17 17 17 17 16 16 16 16 16 16 16 16 16 15 15 15 15 15 15 15 15 15 15 15 15 15 15 15 15 14 14 14
21 20 20 19 19 19 18 18 18 18 17 17 17 17 17 16 16 16 16 16 16 16 16 16 15 15 15 15 15 15 15 15 15 15 15 15 15 15 14 14 14 14 14
21 20 20 19 19 19 18 18 18 18 17 17 17 17 16 16 16 16 16 16 16 16 15 15 15 15 15 15 15 15 15 15 15 15 15 15 15 15 14 14 14 14 14
21 20 20 19 19 18 18 18 18 18 17 17 17 17 16 16 16 16 16 16 16 16 15 15 15 15 15 15 15 15 15 15 15 15 15 15 15 15 15 14 14 14 14
21 20 20 19 19 18 18 18 18 17 17 17 17 17 16 16 16 16 16 16 16 16 16 15 15 15 15 15 15 15 15 15 15 15 15 15 15 15 15 15 14 14 14
21 20 20 19 19 18 18 18 17 17 17 17 17 17 16 16 16 16 16 16 16 16 16 15 15 15 15 15 15 15 15 15 15 15 15 15 14 14 15 15 14 14 14
21 20 20 19 19 18 18 17 17 17 17 17 17 17 17 16 16 16 16 16 16 16 16 15 15 15 15 15 15 15 15 15 15 14 14 14 14 14 14 14 14 14 14
21 20 20 19 19 18 18 17 17 17 17 17 17 17 17 17 17 16 16 16 16 16 16 16 16 15 15 15 15 15 15 15 15 14 14 14 14 14 14 14 14 14 14
21 20 20 19 19 18 18 18 17 17 17 17 17 17 17 17 17 17 16 16 16 16 16 16 16 16 15 15 15 15 15 15 15 15 15 14 14 14 14 14 14 14 14
21 20 20 19 19 18 18 18 18 17 17 17 17 17 17 17 17 17 16 16 16 16 16 16 16 15 15 15 15 15 15 15 15 14 15 14 14 14 14 14 14 14 14
21 20 20 19 19 19 18 18 18 18 17 17 17 17 17 17 16 16 16 16 16 16 16 16 16 15 15 15 15 15 15 15 14 14 14 14 14 14 14 14 14 14 14
21 20 20 19 19 19 18 18 18 18 18 17 17 17 17 17 16 16 16 16 16 16 16 16 16 15 15 15 15 15 15 15 14 14 14 14 14 14 14 14 14 14 14
21 20 20 19 19 19 19 18 18 18 17 17 17 17 17 16 16 16 16 16 16 16 16 16 16 15 15 15 15 15 15 15 15 14 14 14 14 14 14 14 14 14 14
21 20 20 19 19 19 19 19 18 18 18 17 17 17 17 16 16 16 16 16 16 16 16 16 16 15 15 15 15 15 15 15 15 14 14 14 14 14 14 14 14 14 13
21 20 20 19 19 19 19 19 18 18 18 17 17 17 17 16 16 16 16 16 16 16 15 15 15 15 15 15 15 15 15 15 15 14 14 14 14 14 14 14 13 13 13
21 20 20 19 19 19 19 19 18 18 18 17 17 17 17 16 16 16 16 16 16 15 15 15 15 15 15 15 15 15 15 14 14 14 14 14 14 14 14 13 13 13 13
20 20 20 19 19 19 19 19 18 18 18 17 17 17 17 16 16 16 16 15 15 15 15 15 15 15 15 15 15 15 14 14 14 14 14 14 14 13 13 13 13 13 12
20 20 20 19 19 19 19 18 18 18 18 17 17 17 16 16 16 16 16 15 15 15 15 15 15 15 15 15 15 14 14 14 14 13 13 13 13 13 13 13 13 12 12
20 19 19 19 19 19 19 18 18 18 18 17 17 17 16 16 16 16 15 15 15 15 15 15 15 15 15 14 14 14 14 13 13 13 13 13 13 13 12 12 12 12 12
19 19 19 19 19 19 19 18 18 18 18 17 17 16 16 16 16 15 15 15 15 15 15 14 14 14 14 14 14 14 13 13 13 13 13 13 12 12 12 12 12 11 11
19 19 19 19 19 18 18 18 18 18 17 17 17 16 16 16 15 15 15 15 15 15 14 14 14 14 14 14 14 13 13 13 13 12 12 12 12 12 12 11 11 11 11
19 19 19 18 18 18 18 18 18 18 17 17 16 16 16 15 15 15 15 15 14 14 14 14 14 14 13 13 13 13 13 13 12 12 12 12 11 11 11 11 11 10 10
18 18 18 18 18 17 17 17 17 17 17 16 16 16 15 15 15 15 15 14 14 14 14 13 13 13 13 13 13 13 12 12 12 12 11 11 11 11 10 10 10 10 9
18 18 18 17 17 17 17 17 17 17 16 16 16 15 15 15 14 14 14 14 14 14 14 13 13 13 13 13 12 12 12 12 11 11 11 11 11 10 10 10 9 9 9
17 17 17 17 17 16 16 16 16 16 16 16 15 15 15 14 14 14 14 13 13 13 13 13 13 12 12 12 12 12 11 11 11 11 11 10 10 10 9 9 8 8 8
Wind_Speed
7 7 6 5 5 6 6 6 5 4 4 2 2 2 2 3 3 4 6 6 6 6 6 4 4 4 4 4 4 3 3 2 2 2 2 3 4 4 3 4 4 6 8
8 8 7 6 5 6 5 6 5 5 4 3 2 2 3 3 4 4 5 6 6 6 4 4 3 3 3 4 4 3 2 1 1 1 1 2 2 3 3 3 3 4 6
9 9 8 7 6 6 5 5 6 6 6 4 3 3 3 2 3 3 2 4 6 6 6 5 4 3 3 3 2 2 2 1 2 2 2 2 1 0 2 3 3 4 4
8 8 8 7 6 6 5 5 5 6 6 5 4 3 3 2 3 3 3 3 5 5 5 5 4 3 4 4 2 3 2 2 2 2 2 2 2 2 1 1 2 3 4
7 8 8 7 7 6 4 4 5 5 5 5 4 3 3 2 2 3 4 4 3 4 4 4 4 3 3 3 3 3 3 2 2 2 2 3 2 1 2 1 0 1 2
7 7 8 7 7 7 5 5 5 5 4 5 5 4 3 3 4 3 3 3 3 2 3 3 3 3 3 3 2 2 3 2 3 2 2 2 2 2 1 1 1 1 1
8 8 8 8 8 8 7 5 6 5 5 5 5 6 4 4 3 3 3 2 3 2 2 3 2 3 3 4 3 2 2 2 2 2 2 2 2 2 2 2 1 1 1
8 8 9 9 9 9 7 6 6 6 5 5 4 5 5 3 2 3 4 3 3 3 3 3 4 4 4 4 3 2 2 2 2 3 2 2 2 2 2 1 1 1 1
8 8 9 10 9 9 7 7 7 7 6 5 4 4 5 4 3 3 3 3 3 3 4 4 4 4 4 3 3 2 2 3 3 2 2 2 2 2 2 2 2 2 1
8 9 9 9 9 9 7 7 6 7 6 5 4 4 4 4 3 3 4 3 4 3 3 3 4 4 3 3 3 2 2 2 2 2 3 3 2 2 2 2 2 2 1
8 8 8 9 9 9 8 7 7 6 5 5 5 4 4 4 3 2 3 3 3 3 3 2 3 3 3 3 3 1 1 1 1 2 3 3 3 2 2 2 2 2 2
8 8 8 8 8 8 8 6 6 6 5 4 4 5 4 4 4 3 3 3 3 3 3 3 2 2 2 2 3 2 1 1 1 1 2 2 2 2 2 2 2 2 2
7 8 7 7 7 7 6 6 6 6 6 5 4 5 5 4 4 3 3 3 3 3 2 3 3 2 2 2 2 2 2 1 1 2 2 2 2 2 1 1 2 1 2
7 7 7 6 6 7 7 7 6 6 6 6 5 4 5 5 5 4 3 2 2 2 2 3 3 3 2 2 1 1 1 1 1 2 3 3 3 2 2 2 2 2 2
7 7 7 6 6 6 6 7 7 7 7 6 5 4 5 5 4 4 3 2 2 2 1 2 3 3 2 1 2 1 1 1 2 2 3 4 4 5 4 3 2 2 2
6 7 7 7 6 6 6 6 8 8 7 7 6 5 4 4 4 5 4 3 3 2 1 2 3 3 2 4 4 3 2 1 1 2 2 3 4 3 3 3 2 2 1
5 6 6 6 6 6 6 6 6 6 7 7 6 6 5 5 4 4 4 4 3 2 2 2 3 3 2 3 2 2 1 0 1 1 1 1 2 3 1 0 1 1 1
6 6 5 5 5 5 5 5 6 6 6 6 7 6 6 6 5 4 4 4 4 3 3 3 3 3 2 2 1 2 1 1 1 1 1 2 2 3 2 1 1 1 1
5 4 4 5 5 4 4 5 5 5 5 5 7 7 6 6 6 5 5 4 3 3 3 3 3 4 2 2 1 0 1 0 1 2 3 3 2 4 4 2 1 2 2
4 4 3 4 4 4 4 5 5 5 5 5 5 6 6 6 6 5 4 4 4 4 4 3 3 4 3 3 3 2 0 0 0 2 3 4 3 4 4 2 2 2 3
5 4 4 3 3 4 5 5 5 6 6 5 5 5 6 6 5 4 4 4 4 4 4 4 3 3 3 3 3 3 0 0 1 1 2 2 4 4 4 3 2 2 3
5 4 4 3 3 4 4 4 3 5 6 6 6 5 5 5 4 4 3 4 4 4 4 3 3 2 3 3 3 3 2 1 2 1 2 2 3 3 3 2 4 6 5
5 4 4 4 3 3 4 4 4 5 6 7 6 6 5 5 5 5 4 3 3 3 3 3 2 2 2 3 3 3 2 1 2 2 3 3 2 1 1 2 4 4 3
4 4 4 4 3 3 4 4 4 5 6 7 7 6 6 5 5 4 4 3 3 3 3 3 3 2 2 2 2 2 2 2 2 2 2 3 3 2 2 2 2 2 2
3 4 4 4 4 4 4 4 4 5 6 6 6 6 6 6 5 5 3 4 3 3 4 3 3 3 2 2 4 4 2 2 2 2 1 1 2 2 1 1 2 2 2
3 4 4 4 4 4 4 4 3 4 5 6 6 5 5 5 6 5 5 6 5 6 6 6 5 3 4 5 6 5 4 3 4 3 1 1 1 1 1 1 1 2 2
Wind_Direction
162 150 151 149 144 133 127 128 132 130 115 99 87 88 83 69 74 73 68 57 47 45 61 68 67 61 71 72 79 75 68 58 80 74 72 69 70 71 65 54 54 56 58
165 153 156 154 149 139 143 146 143 136 126 117 114 116 106 94 88 70 62 59 58 43 55 70 87 81 80 71 71 74 57 23 44 75 92 89 43 29 68 66 57 52 52
167 163 166 160 156 151 156 154 150 142 134 125 97 88 82 77 93 99 84 58 62 51 43 54 69 86 93 95 90 72 67 21 356 39 63 88 102 20 34 64 69 58 46
171 166 164 159 157 153 160 161 146 136 128 123 117 124 120 120 122 126 121 102 75 65 52 52 65 77 84 92 87 90 68 57 8 3 24 61 112 125 98 14 67 75 62
172 164 158 155 155 147 147 134 122 120 121 122 122 120 112 123 114 109 114 116 93 81 74 57 57 68 80 90 81 74 63 46 41 26 15 19 20 50 120 137 80 56 70
164 156 151 145 144 140 140 135 130 126 133 138 143 136 119 108 102 106 114 119 114 95 90 87 70 72 77 72 74 88 95 68 43 28 23 35 32 18 50 82 123 122 107
163 159 155 149 148 147 149 152 143 142 158 168 161 149 147 148 151 146 141 137 125 120 120 95 84 77 79 77 63 56 69 89 76 54 35 27 18 39 41 56 45 99 155
162 163 157 152 152 154 159 163 157 162 173 181 172 155 151 156 157 151 146 145 135 143 137 117 101 84 75 79 64 44 40 50 68 70 72 42 24 32 45 62 63 30 42
157 158 154 154 154 159 166 172 167 165 175 187 164 154 152 160 153 161 144 134 136 137 125 123 115 105 86 73 72 64 50 47 53 50 59 62 51 33 27 32 60 93 55
158 156 154 155 158 162 167 173 171 168 174 181 164 159 156 156 152 146 134 140 138 122 124 130 128 124 119 97 75 46 50 78 79 67 55 41 39 37 28 23 22 45 88
153 153 156 160 158 158 169 176 170 166 171 177 167 157 156 153 151 145 133 128 122 137 146 132 131 133 130 124 122 103 36 57 79 78 84 68 49 45 28 25 28 30 53
146 150 155 156 158 165 173 171 163 164 165 167 157 157 155 154 154 148 148 161 151 159 157 137 116 104 111 125 123 128 121 76 64 62 85 97 84 62 38 33 30 32 49
148 153 154 159 161 164 168 166 161 159 152 153 159 159 156 161 160 160 169 169 155 160 149 128 124 122 107 99 119 148 154 135 117 93 87 81 76 68 46 53 35 13 38
154 151 153 160 161 168 175 171 161 158 155 160 169 166 159 159 161 161 155 153 142 151 158 141 130 119 96 68 52 71 101 121 111 99 100 83 77 62 32 45 25 28 33
158 154 159 161 165 174 178 169 164 163 164 161 165 172 162 153 154 145 142 132 107 94 102 113 107 94 93 57 47 9 19 92 91 88 100 101 92 80 65 60 31 34 38
163 161 164 163 174 178 178 171 169 171 166 164 166 166 157 151 151 148 153 147 133 117 92 104 109 100 79 70 64 29 0 43 83 95 93 115 109 95 83 76 67 77 85
158 163 168 168 182 186 183 174 172 167 167 167 166 159 155 151 150 152 152 152 149 140 137 127 124 120 103 93 63 12 328 33 88 94 97 87 94 115 158 216 276 309 261
164 168 175 170 179 183 173 167 167 171 170 167 163 159 160 160 157 156 159 163 162 162 168 167 151 137 135 124 86 341 285 226 160 131 118 98 69 32 32 45 47 326 291
153 163 170 161 171 172 158 156 160 163 160 164 164 160 159 160 163 168 170 171 162 161 168 168 157 151 158 161 158 141 256 249 147 87 66 84 80 33 28 27 4 339 329
143 151 152 151 160 156 149 154 160 157 157 157 160 157 157 160 165 170 172 164 159 167 165 157 160 161 156 166 164 165 173 256 81 99 82 68 69 41 33 35 24 1 332
136 136 143 145 148 148 149 158 161 167 161 151 147 144 149 154 157 165 161 154 152 152 154 153 153 138 131 146 150 151 168 159 88 75 84 78 70 54 36 33 32 341 330
130 135 136 130 129 138 144 151 156 150 141 138 138 138 141 148 148 142 143 143 144 148 151 144 141 124 121 126 145 156 165 54 95 87 86 92 92 71 41 26 6 0 6
139 136 131 129 129 132 132 139 130 127 132 133 135 134 135 131 129 133 136 135 138 148 157 147 141 128 115 113 123 141 140 89 79 77 88 93 84 66 34 5 6 7 17
134 135 133 134 132 128 121 122 125 127 133 139 144 142 136 124 116 116 124 129 142 153 155 151 146 131 110 107 116 128 126 105 89 76 73 80 80 59 14 11 8 11 15
137 137 141 140 137 128 121 121 127 138 144 148 145 142 136 132 121 112 109 125 119 144 146 142 139 139 138 144 129 128 132 134 132 112 85 72 72 63 36 22 15 12 12
136 139 143 142 139 131 128 126 129 139 146 148 143 137 136 134 134 129 106 77 93 104 110 116 123 110 119 117 119 119 115 114 113 101 93 79 78 77 47 37 17 14 9
Height
1539 1541 1543 1545 1546 1548 1549 1551 1552 1553 1554 1554 1555 1556 1557 1557 1558 1558 1558 1559 1559 1559 1560 1560 1560 1560 1560 1560 1560 1560 1560 1560 1561 1561 1561 1561 1562 1561 1561 1561 1561 1560 1560
1538 1540 1542 1544 1546 1548 1549 1551 1552 1553 1554 1555 1556 1557 1557 1558 1558 1559 1559 1559 1559 1560 1560 1561 1561 1561 1561 1561 1561 1561 1562 1562 1562 1562 1562 1563 1564 1563 1563 1563 1562 1561 1561
1536 1538 1541 1543 1545 1547 1549 1550 1552 1553 1554 1555 1556 1557 1558 1559 1559 1559 1559 1560 1560 1560 1561 1561 1562 1562 1562 1562 1562 1562 1563 1563 1563 1563 1563 1563 1564 1564 1565 1564 1564 1563 1562
1534 1537 1539 1542 1544 1546 1548 1550 1552 1553 1554 1555 1556 1557 1558 1559 1560 1560 1560 1560 1561 1561 1561 1562 1562 1563 1563 1563 1563 1563 1563 1564 1564 1564 1564 1565 1564 1565 1565 1565 1565 1564 1563
1533 1535 1538 1540 1543 1545 1548 1550 1551 1553 1554 1555 1556 1557 1558 1559 1560 1561 1561 1561 1561 1562 1562 1563 1563 1563 1564 1564 1564 1564 1564 1564 1564 1564 1565 1564 1565 1565 1565 1565 1565 1564 1564
1531 1534 1537 1539 1542 1544 1547 1549 1550 1552 1553 1555 1556 1557 1558 1559 1560 1561 1561 1562 1562 1563 1563 1563 1564 1564 1564 1564 1565 1565 1565 1565 1565 1565 1565 1565 1565 1565 1565 1565 1565 1565 1564
1530 1533 1536 1538 1541 1543 1545 1548 1550 1551 1553 1554 1556 1557 1558 1559 1560 1561 1562 1562 1563 1563 1563 1564 1564 1564 1565 1565 1565 1565 1565 1565 1565 1565 1565 1565 1565 1565 1565 1565 1565 1565 1565
1528 1531 1534 1537 1539 1542 1544 1547 1548 1550 1552 1554 1555 1556 1558 1559 1560 1561 1562 1563 1563 1564 1564 1564 1565 1565 1565 1565 1565 1565 1565 1565 1565 1565 1565 1565 1565 1565 1565 1565 1565 1565 1565
1527 1530 1533 1536 1538 1541 1543 1545 1547 1549 1551 1553 1555 1556 1557 1559 1560 1561 1562 1563 1564 1564 1565 1565 1565 1565 1565 1565 1565 1565 1565 1566 1566 1566 1566 1566 1565 1565 1565 1565 1565 1566 1565
1526 1529 1531 1534 1537 1540 1542 1545 1547 1548 1550 1552 1554 1555 1557 1558 1559 1561 1562 1563 1564 1564 1565 1565 1565 1566 1566 1566 1566 1566 1566 1566 1566 1566 1566 1566 1565 1565 1565 1565 1565 1565 1565
1525 1528 1531 1534 1537 1539 1541 1544 1546 1548 1550 1551 1553 1555 1556 1557 1559 1560 1561 1562 1563 1564 1565 1565 1566 1566 1566 1566 1566 1566 1566 1566 1566 1566 1566 1566 1565 1565 1565 1565 1565 1564 1564
1525 1528 1531 1533 1536 1538 1540 1542 1545 1547 1548 1550 1552 1554 1555 1556 1558 1559 1561 1562 1563 1564 1565 1565 1566 1566 1566 1566 1566 1566 1566 1566 1566 1566 1566 1565 1565 1565 1565 1564 1564 1564 1564
1524 1527 1530 1532 1535 1537 1539 1541 1543 1545 1547 1549 1551 1553 1554 1555 1557 1558 1560 1561 1562 1563 1564 1565 1565 1565 1565 1566 1566 1566 1566 1566 1566 1566 1565 1565 1565 1565 1564 1564 1564 1564 1563
1524 1526 1529 1531 1534 1536 1538 1540 1542 1544 1546 1548 1549 1551 1553 1554 1555 1557 1559 1560 1561 1562 1563 1563 1564 1564 1565 1565 1565 1565 1565 1565 1565 1565 1565 1565 1565 1564 1564 1563 1563 1563 1562
1523 1525 1528 1530 1532 1535 1537 1539 1540 1542 1544 1546 1548 1549 1551 1553 1554 1556 1557 1558 1559 1561 1562 1562 1563 1563 1564 1564 1564 1564 1564 1565 1565 1565 1565 1564 1564 1564 1563 1563 1562 1562 1561
1522 1524 1526 1529 1531 1533 1534 1536 1538 1540 1542 1544 1546 1548 1549 1551 1552 1554 1555 1556 1557 1559 1560 1561 1561 1562 1562 1562 1563 1563 1563 1564 1564 1563 1563 1563 1563 1563 1563 1562 1562 1561 1560
1520 1522 1524 1527 1529 1531 1532 1534 1536 1539 1541 1542 1544 1546 1547 1549 1550 1552 1553 1554 1556 1557 1558 1559 1559 1560 1560 1561 1562 1562 1562 1562 1562 1562 1562 1562 1562 1562 1561 1561 1560 1560 1559
1518 1520 1523 1525 1527 1529 1531 1532 1534 1537 1538 1540 1541 1543 1545 1546 1548 1550 1551 1552 1554 1555 1556 1557 1557 1558 1559 1559 1560 1560 1561 1561 1561 1561 1561 1561 1561 1560 1559 1559 1559 1558 1558
1516 1519 1521 1523 1525 1527 1528 1530 1532 1534 1536 1537 1539 1540 1542 1544 1546 1547 1549 1550 1551 1553 1554 1555 1555 1556 1557 1558 1558 1558 1559 1559 1559 1559 1559 1559 1559 1559 1558 1557 1557 1556 1556
1515 1517 1519 1521 1523 1524 1526 1528 1530 1532 1533 1535 1537 1538 1540 1541 1543 1545 1547 1548 1549 1550 1551 1552 1553 1554 1555 1555 1556 1556 1556 1557 1557 1557 1557 1557 1557 1557 1556 1555 1554 1554 1553
1514 1516 1518 1519 1521 1522 1524 1526 1528 1529 1531 1533 1534 1536 1538 1540 1541 1543 1545 1546 1547 1548 1549 1550 1551 1552 1552 1553 1554 1554 1554 1554 1554 1555 1555 1555 1555 1554 1554 1553 1553 1552 1551
1512 1514 1516 1517 1519 1520 1522 1524 1526 1527 1529 1531 1532 1534 1536 1538 1539 1541 1542 1544 1545 1546 1547 1548 1549 1549 1550 1551 1551 1551 1551 1552 1552 1552 1552 1552 1552 1552 1552 1551 1551 1550 1549
1511 1513 1514 1516 1517 1519 1520 1522 1524 1525 1527 1529 1530 1532 1534 1535 1537 1538 1540 1541 1542 1543 1545 1546 1546 1547 1547 1548 1548 1549 1549 1550 1550 1550 1550 1550 1550 1550 1549 1549 1548 1548 1547
1510 1511 1513 1514 1516 1517 1519 1520 1522 1523 1525 1526 1528 1530 1532 1533 1535 1536 1537 1539 1540 1541 1542 1543 1544 1545 1545 1546 1546 1546 1547 1547 1547 1548 1548 1548 1548 1548 1547 1547 1546 1545 1545
1508 1510 1511 1512 1514 1516 1517 1518 1520 1521 1523 1524 1526 1528 1529 1531 1532 1534 1535 1536 1538 1539 1540 1541 1542 1543 1543 1544 1545 1545 1545 1545 1545 1545 1545 1545 1545 1545 1545 1544 1544 1543 1542
1507 1508 1510 1511 1513 1514 1515 1516 1518 1519 1521 1523 1524 1526 1528 1529 1531 1532 1533 1535 1536 1537 1538 1540 1541 1541 1542 1542 1543 1543 1543 1543 1543 1543 1543 1543 1543 1542 1542 1542 1541 1540 1539